Location: La Comballaz
(46.3780°N, 7.0817°E)
Time: 07:22:47
(UTC+00:00)

CUBEBUG 2 - Visible Passes

Search period start: 09 May 2021 00:00
Search period end: 19 May 2021 00:00
Orbit: 585 x 697 km, 97.7° (Epoch: 08 May)

Date Brightness Start Highest point End Pass type
(mag) Time Alt. Az. Time Alt. Az. Time Alt. Az.
09 May ? 02:16:11 10° NE 02:19:10 17° E 02:22:09 10° SE visible
10 May ? 02:39:13 10° NE 02:43:12 28° E 02:47:13 10° SSE visible
11 May ? 03:02:41 10° NNE 03:07:09 47° E 03:11:41 10° S visible
12 May ? 03:26:22 10° NNE 03:31:02 80° ESE 03:35:45 10° S visible
13 May ? 02:14:55 10° NE 02:17:55 17° E 02:20:56 10° SE visible
14 May ? 02:37:57 10° NE 02:41:58 28° E 02:46:00 10° SSE visible
15 May ? 03:01:25 10° NNE 03:05:56 46° E 03:10:29 10° S visible
17 May ? 02:13:40 10° NE 02:16:41 17° E 02:19:42 10° SE visible
18 May ? 02:36:42 10° NE 02:40:45 27° E 02:44:47 10° SSE visible
